Theta_e
347 350 355 358 358 358 358 357 357 357 356 356 355 355 354 355 355 354 354 354 354 353 354 353 352 353 352 352 352 352 352 352 352 351 351 351 351 350 350 351 350 348 347 348 348 348 348 348 348 347 347 348 347 348 347 348 347 346 345 345 345 345 344 344 343 344 344 344 344 344 344 344 344 344 343 342 341 342 342 342 341 338 337 338 341
347 352 355 357 358 358 357 357 356 356 355 356 355 355 355 355 355 354 354 354 354 354 354 354 353 352 352 352 352 352 353 352 351 352 351 350 350 351 350 348 347 348 348 349 349 349 347 347 347 347 347 347 347 346 347 347 346 345 345 345 344 343 344 343 342 344 344 343 343 343 343 343 343 343 342 341 341 341 341 341 341 337 337 341 342
351 353 354 357 358 357 357 356 356 356 356 356 355 355 354 355 354 354 354 354 354 354 354 354 352 352 352 352 352 352 352 353 353 352 352 352 351 351 350 350 350 349 348 347 348 349 348 347 346 346 347 347 347 347 346 346 345 345 345 344 344 344 343 343 342 343 342 342 342 342 342 342 341 342 343 342 342 341 340 340 339 339 334 339 338
350 352 353 356 358 357 356 356 356 356 355 355 355 355 354 354 354 354 353 354 354 354 354 354 353 352 352 353 353 353 353 352 352 352 351 350 350 351 350 350 349 348 348 348 347 348 348 348 347 347 347 347 347 347 347 346 345 344 345 345 344 343 343 343 344 343 343 342 342 341 339 335 338 341 341 341 341 341 340 340 340 340 340 338 337
350 352 352 354 355 356 356 355 355 355 355 355 355 355 354 354 354 354 353 354 354 354 354 354 354 354 353 353 354 354 353 352 352 351 350 350 349 350 350 350 349 349 348 348 347 347 347 348 347 345 345 346 346 346 346 346 345 344 345 344 343 343 343 343 342 342 342 341 341 338 331 333 335 339 340 340 340 339 340 339 339 339 339 340 339
349 351 354 355 354 353 354 354 355 354 354 354 353 354 354 353 354 354 354 353 353 354 354 354 354 354 353 353 353 354 353 352 351 350 350 351 351 351 351 350 350 349 348 348 347 346 348 349 349 348 347 347 347 347 347 347 345 344 344 344 343 343 342 342 342 341 341 340 340 331 330 331 332 336 340 341 340 340 339 339 339 339 339 339 339
348 351 353 353 352 353 354 354 354 354 354 354 353 354 354 354 354 354 354 354 353 353 353 354 353 353 353 353 353 353 352 352 351 351 351 351 351 350 350 350 349 348 348 347 348 350 349 350 350 350 348 348 348 348 347 347 346 345 344 344 343 343 343 344 342 341 340 336 327 328 329 331 333 334 338 340 341 339 338 338 338 338 337 337 338
349 350 352 351 351 354 354 354 354 354 354 354 354 354 353 353 354 354 354 354 353 353 353 353 353 353 353 353 352 353 352 352 352 352 351 351 351 350 350 348 348 348 347 350 349 349 348 349 349 348 348 347 347 347 347 347 346 345 345 345 344 343 344 344 344 339 338 332 329 328 329 331 331 334 341 342 341 341 341 340 339 338 338 337 337
347 351 352 352 352 354 354 353 353 353 354 354 354 353 353 353 353 353 354 353 353 353 353 352 353 352 352 352 352 352 352 352 352 352 351 351 350 350 350 350 350 349 350 349 348 348 348 348 347 347 347 347 346 346 346 346 345 345 344 344 345 344 344 343 344 345 339 334 331 329 328 328 330 332 340 341 341 340 339 338 339 339 337 336 338
348 350 351 352 352 354 353 352 352 353 354 354 353 353 353 353 353 353 353 353 353 353 352 352 352 352 352 352 352 352 352 352 352 351 350 350 350 350 350 350 349 348 349 349 349 348 348 347 346 346 347 347 347 346 346 345 345 345 345 344 344 343 343 342 343 343 336 333 331 329 331 339 332 333 338 338 338 338 337 337 340 338 337 338 338
348 350 351 351 352 353 352 352 352 353 353 353 353 352 352 353 353 353 353 353 353 352 352 352 352 351 351 351 351 351 351 351 351 350 350 349 349 350 349 350 349 349 349 349 349 347 347 347 346 345 346 347 346 346 345 345 345 344 344 343 343 342 342 343 342 333 336 332 330 328 340 340 329 332 341 340 338 339 339 339 338 338 338 336 336
348 351 351 351 353 352 352 352 352 352 352 352 352 352 353 353 353 353 353 353 352 352 351 351 351 351 351 351 351 351 350 350 350 350 350 350 349 349 349 350 350 349 349 349 348 348 347 347 346 345 345 346 346 346 344 344 344 343 343 343 341 341 342 342 335 332 334 330 330 331 334 332 331 337 340 339 339 337 337 339 339 338 337 339 339
348 349 349 350 350 352 351 352 352 352 352 352 352 353 352 353 353 353 353 352 352 351 351 351 351 351 350 350 349 350 350 350 350 349 349 349 349 349 349 349 350 349 349 349 349 348 347 346 345 345 345 345 345 345 344 344 343 342 342 342 342 342 341 340 333 334 331 330 333 331 328 327 331 340 339 338 338 338 338 337 337 337 339 339 339
345 347 348 348 349 352 350 352 351 352 352 352 352 352 352 352 352 352 352 351 351 351 351 351 351 350 351 350 350 349 350 350 350 349 349 349 349 349 349 349 349 349 349 348 348 347 346 345 345 344 344 344 344 343 342 343 343 342 343 343 343 343 341 339 337 332 332 331 330 328 327 331 331 341 339 339 339 338 338 338 337 337 337 337 337
344 345 346 347 348 350 352 351 351 352 352 351 351 351 351 351 351 351 351 351 351 350 351 351 351 350 350 350 350 350 350 350 349 349 349 349 348 348 348 348 348 348 348 348 347 347 346 345 344 343 343 343 342 342 342 343 343 343 343 343 344 344 341 334 333 331 330 331 330 332 328 329 341 340 339 339 338 337 337 336 336 337 337 336 336
343 343 344 344 345 348 349 352 352 351 351 351 351 351 351 351 351 351 350 350 350 350 350 350 350 350 350 350 350 350 350 350 350 349 349 348 348 347 347 347 347 347 347 346 346 346 345 344 343 343 342 342 342 342 342 342 343 343 343 343 344 344 341 337 330 329 329 330 330 331 328 332 341 340 339 339 337 337 337 336 336 336 336 337 336
343 344 344 345 347 347 349 350 351 351 351 350 351 351 350 350 350 350 350 350 350 350 350 350 350 350 350 350 349 349 349 349 349 349 348 348 347 347 347 346 346 346 346 346 346 345 344 343 342 342 342 342 342 342 342 343 343 343 343 343 344 344 341 338 329 329 328 332 333 331 328 332 340 341 339 338 337 336 336 336 336 336 335 336 336
342 343 344 345 346 347 348 349 349 349 349 350 351 350 350 350 350 350 350 349 350 350 350 350 350 350 350 349 349 349 349 348 348 349 348 348 348 347 347 346 345 345 345 345 345 344 343 343 342 342 341 342 342 342 343 343 343 343 343 343 343 343 342 337 329 330 330 335 331 333 330 339 341 339 339 338 337 336 336 337 337 336 336 335 335
342 344 345 345 345 346 347 348 348 348 348 347 347 349 350 350 350 349 350 350 350 350 350 349 350 349 349 349 349 349 348 348 348 348 348 347 347 347 347 346 345 345 345 345 345 344 343 343 342 341 341 341 341 342 342 343 342 343 343 343 341 342 342 336 330 330 332 333 330 330 328 340 341 340 339 338 337 336 335 336 335 334 334 335 334
342 344 344 345 346 346 346 347 347 347 348 347 347 347 349 350 350 350 350 350 350 350 350 349 349 349 349 348 348 347 347 346 348 346 347 346 346 344 347 346 345 345 345 345 345 344 343 343 342 341 340 340 340 340 340 341 342 343 343 341 340 340 332 329 330 331 331 330 331 328 335 341 339 339 339 338 337 336 335 334 334 334 334 335 334
341 342 343 344 345 345 345 346 347 347 347 347 346 346 348 349 349 350 350 350 349 350 349 350 348 348 347 347 343 340 339 339 341 341 347 341 344 346 346 345 345 345 345 345 345 344 343 343 342 340 341 340 340 340 338 337 338 340 341 339 338 331 331 330 330 332 330 331 334 329 339 341 338 339 339 338 337 336 334 333 334 334 335 335 335
336 338 341 343 343 344 344 345 345 346 346 346 346 346 347 347 344 345 346 347 348 348 346 345 348 343 346 342 339 342 336 336 337 345 340 342 342 346 345 345 345 345 345 345 345 344 344 343 341 340 340 340 339 325 326 333 334 337 337 337 327 326 331 330 330 331 331 329 331 332 340 339 339 339 339 338 337 336 334 334 333 333 334 334 334
334 337 339 341 342 343 343 343 344 345 345 345 345 345 344 343 342 343 345 348 348 347 343 344 339 339 338 338 338 336 335 337 337 342 341 345 342 346 345 344 345 345 344 345 344 344 344 343 342 341 340 339 328 322 321 320 321 333 333 326 324 326 329 330 330 331 331 329 329 337 339 339 339 339 339 338 337 335 334 334 333 333 333 333 334
334 336 337 340 341 341 342 342 343 344 344 344 343 343 344 344 342 340 341 341 341 341 338 338 338 337 336 335 334 336 334 332 346 346 345 339 339 344 345 344 344 344 344 344 344 343 344 344 342 341 340 336 326 324 323 320 322 322 322 323 324 324 328 330 330 330 330 335 330 339 340 340 340 339 339 338 337 336 335 334 333 333 332 333 333
335 336 337 337 339 339 340 341 342 342 343 342 343 343 344 343 340 338 338 337 336 335 335 334 336 336 334 334 334 334 332 331 331 334 335 334 335 336 337 335 336 337 343 334 335 338 338 334 334 336 327 328 327 325 323 322 322 323 323 323 325 325 327 330 329 329 329 331 331 340 341 341 339 339 339 338 337 336 335 334 334 333 332 333 333
336 335 335 337 338 339 340 340 341 341 342 342 342 343 343 341 339 337 337 336 335 333 332 332 334 335 334 336 336 332 331 330 329 329 332 332 335 335 332 332 333 334 336 334 333 331 330 335 334 332 328 326 325 325 323 325 324 323 323 324 324 325 327 327 328 329 330 330 333 341 340 341 340 339 338 337 337 336 335 334 333 332 332 332 333
336 335 336 337 338 339 339 340 339 340 341 342 342 342 341 341 338 338 336 334 332 331 330 330 331 334 337 338 335 334 333 330 329 328 330 332 334 335 333 333 332 333 335 334 333 333 333 331 331 332 328 327 326 326 323 324 322 324 324 325 325 326 326 327 328 329 329 330 334 341 340 341 340 339 338 338 337 336 335 334 333 332 332 331 331
336 336 336 337 338 338 340 340 339 339 339 341 341 340 339 338 338 342 336 338 333 330 329 329 330 332 335 336 337 334 333 331 330 329 330 329 333 334 332 332 332 333 333 333 332 331 332 331 331 329 330 328 327 326 325 325 323 322 324 324 325 325 327 327 329 329 329 330 333 340 340 340 340 340 338 337 337 336 335 334 334 333 332 332 331
335 335 337 338 339 340 340 340 340 339 339 340 339 338 337 336 337 337 335 341 330 330 329 330 330 331 332 336 336 333 333 331 329 329 328 331 330 331 331 330 330 333 333 332 331 331 332 332 330 330 328 326 324 325 325 326 323 323 323 324 324 325 326 327 328 329 328 329 332 337 341 340 339 339 338 337 337 336 335 334 334 333 333 332 331
335 336 337 338 340 341 340 340 340 340 339 339 337 336 336 336 336 335 335 339 330 330 330 329 330 331 331 333 335 333 331 330 329 328 327 329 329 330 329 328 329 329 331 329 329 330 331 332 330 329 330 327 327 326 327 327 327 326 324 323 324 326 327 328 329 329 330 331 332 334 340 339 338 338 338 337 337 336 335 335 334 334 333 333 332
333 334 336 337 340 341 340 341 341 342 340 338 337 337 337 336 336 334 336 334 332 333 330 328 329 330 331 332 333 333 331 329 329 328 327 328 327 327 327 327 327 328 329 327 328 329 329 331 330 328 326 325 327 327 327 327 326 326 324 324 323 326 328 328 329 330 331 331 331 330 336 340 338 336 337 337 338 337 336 335 335 334 334 333 333
329 331 332 333 337 340 340 341 341 342 340 338 339 337 337 336 336 333 333 331 333 330 329 328 331 328 330 330 331 331 332 329 329 328 329 327 326 326 325 326 325 327 327 329 329 328 328 329 330 329 327 326 326 325 325 324 324 324 324 324 323 326 326 327 328 330 329 329 330 331 331 335 338 336 337 336 337 338 337 336 335 334 334 334 334
327 330 330 330 334 339 340 340 341 341 338 338 337 336 336 337 335 332 332 333 332 330 327 327 328 329 328 329 331 334 331 330 328 329 332 326 326 326 325 326 326 325 326 328 330 328 327 327 326 328 327 326 325 324 324 322 321 321 322 323 323 327 328 327 328 329 329 330 329 330 329 330 331 337 335 337 336 338 338 337 336 335 334 334 334
328 329 329 329 333 338 340 339 339 339 337 337 336 335 335 334 333 331 333 330 329 328 329 326 329 329 330 329 332 334 332 329 329 327 328 325 325 325 324 324 327 328 326 327 328 328 326 326 326 326 329 326 324 322 320 321 322 324 325 326 325 324 326 327 327 327 328 329 330 329 330 329 329 330 331 338 337 336 336 338 336 336 334 334 334
326 325 327 328 332 337 338 337 338 336 338 336 336 334 333 333 331 329 328 328 329 327 325 326 327 327 329 329 329 331 332 331 329 328 327 326 324 324 325 327 329 326 325 325 326 324 324 324 324 325 322 321 322 324 322 323 322 324 324 325 326 326 325 325 326 327 328 328 329 329 330 331 330 329 331 328 336 337 336 337 338 336 336 335 334
325 325 327 328 330 335 337 335 334 333 334 335 333 332 332 329 329 331 326 325 325 325 324 326 327 327 329 329 330 330 329 329 328 326 325 325 324 324 326 327 327 325 324 324 324 324 323 325 326 325 322 323 324 324 324 324 324 325 324 325 325 326 325 325 325 327 328 328 329 328 330 329 330 330 334 328 328 331 336 336 336 337 337 336 335
324 324 325 326 329 334 335 332 331 331 332 332 330 328 328 327 327 326 325 324 324 323 324 326 330 330 328 329 329 330 329 328 326 326 324 324 324 323 325 325 326 326 323 322 323 324 324 327 324 326 323 323 324 325 324 324 325 325 325 325 325 326 326 327 326 325 328 326 327 328 329 329 331 338 331 330 328 328 333 336 336 335 336 337 337
324 325 325 326 329 332 331 329 328 329 331 331 329 327 326 326 325 325 328 324 323 324 326 328 329 328 328 327 327 330 328 326 325 326 325 327 326 325 325 325 325 325 326 324 323 325 325 325 323 325 325 323 324 324 323 323 325 325 324 324 322 324 324 325 326 328 325 325 324 327 329 329 331 332 332 331 331 329 328 332 336 335 335 334 335
325 324 326 327 328 328 328 329 327 327 328 328 326 323 321 321 322 323 322 321 320 321 324 323 323 326 325 326 328 330 330 325 326 327 325 326 327 327 324 323 324 325 327 326 324 326 326 322 322 322 324 324 322 323 324 324 325 324 324 323 323 323 323 324 324 326 326 325 325 328 328 328 329 330 331 331 330 329 329 329 329 328 331 334 334
325 326 326 326 326 326 326 325 326 326 325 322 320 319 320 321 321 319 320 319 318 321 318 319 320 322 326 325 323 323 327 326 325 324 325 324 324 325 323 324 326 327 327 326 326 326 324 322 322 322 322 324 325 325 324 324 322 322 322 324 325 325 325 324 324 324 327 325 324 324 326 327 327 328 329 330 330 330 330 330 331 331 331 333 335
324 325 325 325 325 325 324 323 324 323 322 318 318 318 316 316 316 317 316 315 318 317 317 317 318 319 321 323 323 322 322 324 326 323 322 329 326 324 325 326 326 325 326 327 327 325 322 323 323 322 321 321 323 326 325 322 321 317 317 318 322 325 327 323 323 324 326 328 326 325 325 324 325 326 328 330 330 330 330 330 330 330 331 332 331
323 325 324 324 323 324 324 323 321 320 319 318 318 317 316 318 317 315 315 315 316 316 314 315 316 319 318 317 316 315 317 320 324 322 324 323 323 324 326 327 328 326 325 325 325 327 326 325 323 322 322 321 322 326 324 321 316 314 313 313 314 318 323 322 322 324 325 327 328 328 327 325 325 325 327 328 329 329 329 329 330 330 331 331 331
324 325 325 323 322 322 323 321 319 317 315 316 316 316 314 317 317 314 316 312 313 314 315 317 317 316 315 315 316 315 315 314 318 323 323 322 321 322 324 327 327 327 327 326 325 325 325 324 321 320 319 320 322 324 320 318 315 316 315 314 310 311 315 318 323 326 327 328 327 328 329 328 328 328 328 327 327 328 329 329 329 329 329 330 331
323 324 324 323 322 323 321 319 317 316 315 318 318 316 317 316 316 315 313 313 314 316 314 314 314 314 314 315 315 315 315 315 315 319 318 319 319 319 323 326 327 326 325 324 323 323 323 324 321 319 317 315 318 319 323 321 318 316 312 311 311 310 308 312 314 319 325 327 327 327 328 326 328 330 328 328 327 327 328 329 328 327 328 329 330
323 324 324 323 323 322 321 319 317 316 317 320 317 318 318 315 315 314 315 314 314 313 314 312 314 316 314 314 313 313 314 314 314 315 317 314 317 322 324 325 326 323 323 322 322 321 320 320 319 318 317 317 318 320 323 324 322 321 316 311 307 306 307 310 311 316 321 323 323 327 327 326 328 327 326 327 328 326 326 325 325 325 326 326 327
322 324 325 325 324 323 322 319 318 317 318 317 317 318 317 314 313 312 310 309 311 310 309 310 310 311 311 312 312 313 313 312 311 312 314 314 314 314 315 319 319 319 320 319 320 319 317 319 319 319 317 317 318 320 321 323 320 319 318 316 312 309 311 316 314 311 316 320 321 324 326 325 325 326 323 326 327 327 326 326 327 324 326 325 327
322 325 325 325 324 324 322 321 319 318 318 317 317 318 315 314 313 312 311 311 310 308 308 309 311 310 311 311 311 312 311 311 310 310 312 315 314 314 316 316 315 315 318 315 316 318 321 322 321 319 318 317 317 317 321 320 318 318 318 319 322 324 320 314 309 309 309 313 315 321 324 326 327 327 328 330 329 327 329 329 328 327 326 327 327
323 324 325 325 324 324 323 321 320 319 318 317 316 317 315 313 311 310 312 310 311 311 310 310 310 311 311 311 311 310 311 310 310 310 311 313 313 312 313 314 314 316 317 313 313 315 318 320 318 317 317 318 318 319 318 320 316 314 316 315 318 320 318 315 312 311 307 307 310 315 318 320 323 325 327 327 327 327 327 328 329 330 328 328 327
323 323 324 325 325 324 323 321 319 318 316 316 316 315 316 313 312 312 311 311 311 312 312 312 311 310 310 309 310 308 308 308 308 309 310 312 314 311 312 312 313 314 316 314 312 313 312 312 313 314 314 315 317 316 316 314 313 311 313 314 316 316 314 313 315 314 310 307 307 309 310 314 318 318 314 317 322 325 326 328 331 332 329 327 327
323 324 324 325 325 324 322 321 318 316 316 315 315 313 314 314 312 312 311 310 312 310 310 310 309 309 309 307 306 306 307 307 308 308 309 309 309 310 310 311 311 314 314 311 311 311 311 311 310 311 312 312 312 313 312 310 310 310 313 314 312 313 310 309 308 310 309 310 309 308 309 308 308 308 310 310 313 321 325 326 325 326 327 328 329
323 324 324 324 325 323 321 319 316 316 315 314 313 313 313 313 313 313 313 313 312 311 311 308 309 308 309 306 306 306 306 306 307 307 308 309 310 312 310 310 312 316 312 311 309 309 308 308 309 309 309 309 309 308 309 308 308 308 310 313 312 311 309 306 307 307 307 304 304 304 307 307 307 304 307 308 308 308 309 309 309 309 311 317 325
Wind_Speed
2 6 5 10 11 12 13 13 13 14 14 14 15 15 18 18 18 19 20 20 20 19 18 19 21 20 20 19 19 18 18 17 17 17 17 17 17 16 16 17 17 15 16 17 17 17 17 15 15 15 14 14 14 14 15 16 16 17 16 15 15 15 14 14 15 14 14 15 14 15 14 13 15 14 13 14 14 14 14 15 13 9 6 10 14
6 4 5 8 12 12 12 13 13 13 14 14 14 15 17 18 17 17 18 19 19 19 18 17 19 20 19 18 19 19 18 17 18 17 16 16 16 16 16 16 16 16 16 16 17 17 16 15 15 14 14 14 14 15 15 16 15 16 15 15 14 14 14 13 13 15 15 14 14 14 15 15 14 14 13 14 13 13 13 14 15 7 4 13 13
7 5 4 9 13 12 11 12 13 12 13 13 13 15 16 17 17 17 16 17 18 18 17 16 17 19 19 18 18 18 17 17 17 17 16 16 16 16 16 16 16 16 15 16 15 16 16 16 15 15 15 14 14 15 16 16 16 16 15 14 14 14 12 11 13 13 13 13 13 13 15 15 14 14 14 13 13 13 13 13 13 11 8 13 12
10 5 4 8 12 11 10 11 11 12 12 12 12 14 15 16 17 17 16 16 16 17 17 16 16 17 18 18 17 17 18 17 17 17 16 16 16 16 16 16 16 16 15 15 15 15 15 15 15 14 14 14 15 15 16 16 16 15 15 14 13 12 12 13 12 12 12 12 11 8 4 5 8 13 14 13 14 13 13 13 13 14 14 13 13
11 8 6 5 7 8 10 11 11 13 13 12 12 14 15 16 17 17 16 15 15 16 16 16 15 16 17 17 17 16 16 15 15 16 15 15 15 15 15 15 16 15 15 15 14 14 14 14 14 13 13 13 14 15 15 15 15 14 14 13 12 12 11 11 12 12 11 11 10 6 4 5 5 11 13 14 13 13 12 13 13 13 14 14 13
11 9 7 6 6 7 11 11 11 14 13 13 13 14 15 16 17 17 16 16 14 15 15 15 15 15 16 16 16 16 15 15 15 15 15 15 14 14 13 15 16 15 15 15 14 13 13 14 15 14 13 13 14 15 15 15 15 15 13 13 12 11 11 11 11 11 11 9 7 3 3 2 3 5 13 12 13 12 12 12 13 13 13 13 13
10 9 12 10 7 8 11 11 11 12 12 12 13 13 14 15 16 17 16 16 15 15 15 15 15 15 16 16 16 15 15 15 15 15 14 13 13 13 12 14 14 15 14 14 14 13 13 13 14 14 14 13 14 14 15 14 14 13 12 11 11 12 12 11 9 9 8 4 2 2 2 3 3 4 10 13 13 12 11 11 12 13 12 12 13
8 6 8 11 9 11 12 11 12 12 11 12 13 13 13 13 14 15 16 16 16 14 14 14 15 16 15 15 15 15 16 15 15 14 13 12 12 11 11 12 12 11 12 15 14 13 13 13 12 13 14 13 13 13 14 14 13 12 11 10 9 9 7 6 7 8 6 2 2 2 3 2 2 3 11 12 12 12 12 11 11 12 13 12 13
10 10 9 11 10 16 13 12 12 12 12 12 12 12 12 12 12 15 15 16 16 16 15 14 14 15 14 14 14 14 15 15 14 13 12 12 12 9 7 7 8 8 8 13 13 12 12 11 10 11 14 13 12 13 13 12 11 9 9 9 8 7 4 3 3 4 3 2 1 2 2 2 2 4 10 11 12 12 12 10 10 12 11 12 12
8 8 5 9 11 16 14 13 12 13 12 12 12 12 13 12 12 13 14 15 15 15 14 14 14 14 14 14 14 15 15 15 14 14 13 12 11 10 7 6 8 9 10 13 13 12 12 10 9 9 11 12 12 11 11 10 9 9 8 7 6 6 4 1 1 2 2 2 1 1 0 3 3 3 9 11 12 12 11 9 7 7 9 12 13
8 7 6 8 11 15 14 14 14 13 13 13 13 12 13 13 13 12 13 13 14 14 13 13 13 13 14 14 14 14 14 14 13 14 13 11 10 9 9 8 9 9 13 13 13 12 11 10 9 8 9 11 11 10 10 9 9 8 8 7 6 4 2 5 2 2 2 3 2 1 2 6 3 3 11 12 12 12 11 10 11 10 11 11 12
10 9 8 7 13 13 13 13 14 14 15 15 14 13 12 12 12 12 12 12 12 12 12 10 11 12 13 13 14 14 14 14 13 12 12 11 11 10 10 11 11 11 12 12 12 12 11 10 9 7 7 9 9 9 9 9 9 8 7 6 4 2 3 4 3 4 3 4 3 1 2 2 2 6 12 11 11 11 11 11 11 10 11 13 13
12 11 9 7 7 11 11 13 14 15 15 15 14 13 12 12 12 11 11 11 11 11 11 10 10 11 12 13 13 13 13 12 12 12 12 11 11 11 11 11 11 11 12 12 12 11 10 10 8 6 6 7 8 8 9 9 9 8 8 7 5 4 3 8 5 5 4 4 2 2 2 0 1 8 10 11 11 10 10 10 10 10 12 11 12
11 10 10 11 8 11 10 11 12 14 14 14 13 12 13 13 12 11 10 11 10 10 10 10 10 11 11 12 12 12 12 11 11 12 12 11 11 11 11 11 11 11 11 11 11 10 10 9 8 6 5 7 7 7 8 8 8 8 8 7 6 6 5 6 6 4 4 3 2 2 1 1 2 7 10 11 11 10 10 10 9 10 10 11 11
13 10 9 10 9 8 14 10 12 12 12 12 12 12 12 11 11 11 11 11 11 11 11 11 11 12 12 11 12 12 11 11 11 11 11 11 10 11 11 11 11 11 11 10 10 10 9 8 7 5 6 6 6 6 6 7 7 8 7 6 6 7 6 3 4 4 4 3 2 2 1 2 7 8 10 10 9 9 9 9 9 10 10 11 11
12 11 10 11 13 9 8 12 11 12 12 12 11 11 11 12 12 12 12 12 12 11 11 11 12 11 11 11 11 10 11 10 9 9 10 10 10 11 11 11 11 11 10 10 10 9 9 8 6 6 5 5 4 5 6 7 7 7 6 5 5 7 7 5 4 3 4 4 2 1 1 1 8 7 10 10 10 9 9 9 9 8 9 10 10
9 8 9 8 10 8 8 9 9 15 12 10 11 11 11 11 12 12 12 12 12 12 12 12 12 12 11 10 10 9 9 9 9 9 10 10 10 10 10 10 11 11 10 9 9 9 8 8 6 5 5 4 5 5 5 6 7 6 5 4 4 6 9 7 5 4 4 3 3 2 2 2 6 7 9 10 10 9 9 9 8 8 9 9 9
9 9 10 8 8 7 7 7 8 8 7 10 10 11 11 11 11 11 11 11 11 11 11 11 11 11 10 9 9 9 9 9 8 8 8 7 7 7 8 10 10 9 9 9 8 8 7 7 6 5 5 4 5 5 5 5 5 5 4 3 3 5 11 8 4 4 4 4 3 2 2 4 7 9 9 10 10 8 9 9 9 8 8 8 8
9 9 10 8 8 7 7 6 6 7 7 6 5 9 12 11 11 11 11 11 11 11 11 11 12 11 11 10 10 10 9 9 8 8 7 7 7 6 6 8 9 9 9 9 8 7 7 6 5 4 4 5 5 6 6 6 6 5 5 5 5 6 13 7 4 4 3 3 2 1 2 5 6 8 9 10 9 9 7 9 8 8 7 7 7
3 7 10 9 8 8 6 6 6 7 6 5 6 6 11 11 10 10 10 10 10 11 11 11 11 10 11 9 9 7 7 7 10 7 8 6 6 4 5 6 9 9 8 8 7 7 6 6 4 2 3 5 5 5 6 7 7 6 5 5 6 7 6 5 4 4 4 4 2 2 4 6 8 9 9 9 9 9 7 7 8 8 7 7 6
5 5 6 6 7 9 10 7 7 7 6 6 5 5 7 11 8 9 9 9 9 12 12 12 10 9 8 8 6 4 3 3 4 4 7 3 5 5 6 7 8 8 8 8 7 6 6 5 4 3 2 4 4 5 5 6 7 6 6 5 5 5 5 5 4 3 3 3 3 3 5 7 9 9 10 10 9 9 7 6 7 8 7 7 7
7 6 7 7 7 7 10 9 7 7 6 5 4 4 5 7 4 5 5 7 8 9 6 5 7 3 8 6 3 3 3 3 3 5 3 3 3 5 6 8 7 8 7 7 7 6 5 4 3 2 1 2 4 3 3 4 6 7 6 5 2 2 4 5 4 4 3 3 2 3 6 7 9 9 10 10 9 9 8 7 6 6 7 6 7
8 7 7 8 7 8 9 10 9 8 7 6 5 5 4 4 3 4 4 6 7 6 4 5 4 4 4 4 3 3 3 3 3 4 3 4 2 4 6 8 8 8 7 6 7 6 5 4 3 2 1 1 1 2 2 2 2 6 4 2 1 0 3 4 4 4 4 3 3 5 8 7 9 10 10 10 10 10 8 7 7 6 6 6 6
9 8 8 6 7 7 10 9 10 9 7 5 4 4 4 3 3 4 4 4 4 5 5 5 4 4 4 4 3 2 2 2 5 9 7 3 1 3 6 7 8 9 9 5 6 5 6 5 3 3 2 1 1 1 2 2 2 4 2 1 1 1 3 5 5 5 5 3 4 7 8 8 8 9 10 10 9 9 8 8 7 7 6 6 6
8 8 7 7 7 6 6 7 7 6 6 6 5 5 4 3 4 4 4 4 4 4 5 4 4 5 4 4 3 2 1 1 1 2 3 2 2 1 1 2 1 2 5 2 2 2 3 2 1 1 0 0 2 2 2 3 2 3 1 1 0 1 2 3 5 5 4 4 4 7 8 8 9 9 10 10 9 9 8 7 7 7 6 6 6
7 8 8 8 8 7 7 6 6 6 7 6 6 6 6 6 4 4 4 4 5 5 4 4 4 4 4 4 3 2 1 0 1 2 3 2 2 1 2 2 2 2 2 3 3 3 3 3 2 1 1 1 2 2 1 1 3 2 1 1 0 1 3 3 4 5 5 4 4 9 8 8 8 10 10 10 10 9 9 8 7 7 6 5 6
9 9 8 8 8 8 7 7 7 6 7 7 6 6 5 5 4 4 5 4 4 5 5 4 4 4 4 4 3 2 2 1 1 2 2 2 2 2 3 3 2 3 2 4 3 3 3 2 1 1 0 1 2 3 3 2 1 1 1 1 1 1 3 4 4 5 5 4 5 9 8 8 8 10 10 10 10 10 9 8 8 7 6 5 6
9 9 8 8 8 9 9 9 8 7 7 7 7 5 5 5 4 5 4 5 5 5 4 4 4 4 4 4 4 3 3 3 3 3 3 2 3 3 3 2 2 2 2 2 3 2 1 0 0 0 0 1 2 3 3 3 2 1 0 1 2 2 3 4 4 4 4 4 4 8 9 9 8 9 10 10 10 10 9 9 9 8 8 6 6
10 9 8 9 10 9 10 9 8 8 7 7 6 4 4 3 2 4 4 5 4 4 4 4 4 3 3 4 4 4 3 3 3 3 2 3 3 3 3 2 1 1 1 1 1 0 0 0 1 1 1 2 2 3 3 3 3 2 1 1 3 3 3 3 4 4 3 5 5 6 10 9 9 8 10 10 10 10 9 9 9 9 8 8 7
9 9 9 9 9 10 11 10 9 8 7 6 5 5 4 4 3 3 4 5 4 4 4 4 4 4 3 3 4 4 4 4 3 2 3 4 4 4 1 1 1 1 2 2 1 2 2 1 1 1 1 2 2 2 3 5 4 3 2 1 3 4 4 5 5 5 5 5 5 4 9 9 8 8 7 9 10 10 9 9 10 9 9 9 8
9 9 9 9 10 11 11 11 9 8 7 6 6 5 5 5 4 4 4 4 4 4 3 4 4 3 4 4 3 3 3 2 3 2 2 3 1 3 3 2 1 1 1 2 1 2 2 2 2 1 1 1 3 3 3 4 4 4 3 1 2 3 5 4 4 4 4 5 4 3 4 9 8 8 7 7 8 10 10 10 9 9 8 9 8
6 8 6 6 9 9 11 11 9 8 7 6 6 6 6 5 4 4 3 4 4 3 3 3 4 3 3 3 2 2 2 2 3 3 4 2 3 3 3 2 1 1 1 1 1 1 1 0 0 0 1 2 2 3 2 3 5 4 1 2 2 3 4 4 4 4 3 2 3 3 3 4 7 8 7 8 7 8 10 10 9 9 9 9 9
4 5 4 5 9 9 10 9 8 7 7 7 6 5 5 4 4 3 3 3 3 3 2 2 2 3 2 2 2 2 2 3 3 4 4 2 3 3 2 3 1 1 2 2 2 2 1 1 1 0 0 2 3 3 2 1 2 2 1 1 3 4 4 4 5 4 4 3 3 3 2 3 3 6 7 7 7 6 8 9 9 9 9 9 8
8 5 4 4 3 3 6 6 7 7 6 5 4 5 4 3 3 3 3 4 3 3 2 1 2 3 3 2 2 2 3 3 3 3 2 3 2 2 3 2 2 2 2 3 3 2 1 0 1 0 2 2 2 2 1 3 3 3 3 2 3 3 5 5 5 5 4 4 4 3 3 2 3 3 3 5 7 5 7 7 9 9 8 8 9
3 3 6 5 4 5 7 6 6 6 5 5 5 4 3 4 4 4 3 3 3 4 3 2 3 2 4 4 4 1 1 3 3 4 2 3 3 2 2 2 1 2 3 3 3 1 1 1 0 0 1 1 1 1 2 3 2 4 3 2 3 3 2 3 3 3 4 3 3 3 3 3 3 2 2 3 4 5 6 7 8 8 8 8 9
4 4 5 6 5 6 8 8 7 7 6 6 4 4 4 3 4 4 4 3 4 4 4 3 3 2 3 3 5 4 3 2 2 3 3 1 2 2 1 1 1 1 2 2 2 3 1 0 0 1 1 2 2 3 2 4 3 4 3 4 4 3 4 2 1 4 3 4 4 3 3 3 3 4 3 3 2 3 5 6 7 7 9 10 10
2 4 5 5 5 7 9 9 9 8 7 6 5 4 4 4 4 4 4 3 3 3 3 3 3 3 2 4 4 6 6 5 3 4 3 0 1 2 1 1 0 0 2 2 2 3 2 0 1 3 3 1 2 4 4 4 4 3 3 4 3 3 4 3 3 1 2 4 4 4 4 4 3 5 4 4 3 2 3 5 7 6 8 8 8
3 6 5 6 8 8 8 8 7 6 6 7 6 5 4 4 4 4 3 3 2 2 3 4 3 3 3 2 2 3 3 2 2 4 3 3 2 2 1 0 0 0 0 1 3 2 1 2 2 2 3 1 2 5 4 3 3 4 4 4 3 4 4 4 4 3 2 2 2 3 4 4 4 5 4 4 4 3 2 3 6 6 5 7 7
4 6 6 4 4 6 7 7 7 6 6 6 6 6 6 5 5 4 4 2 2 2 2 2 3 4 4 4 4 4 3 2 2 3 3 3 2 1 1 2 2 2 2 2 2 0 2 3 3 3 4 2 1 2 4 4 4 3 4 3 2 3 4 4 3 4 3 2 2 2 2 4 4 4 5 4 4 3 4 4 3 3 4 6 7
1 6 9 7 5 7 6 6 6 6 6 6 6 6 5 5 6 4 4 3 3 3 2 2 2 4 3 3 3 3 3 3 4 4 4 3 3 2 2 1 2 3 3 3 1 2 3 4 3 3 2 1 2 0 2 3 4 4 2 3 3 2 4 3 4 4 3 2 2 2 5 4 4 3 3 3 4 4 4 4 4 5 4 5 7
3 4 8 9 9 10 10 9 7 7 8 7 5 6 5 4 3 3 4 1 3 3 3 1 2 2 3 2 1 0 2 4 3 4 4 3 3 2 1 2 3 2 3 2 1 2 2 3 4 2 3 2 0 1 1 3 5 2 2 2 2 2 2 2 2 2 3 3 3 1 1 2 4 4 4 4 4 4 4 5 5 5 5 4 5
5 7 10 10 9 10 11 10 7 6 7 8 7 5 4 5 5 4 3 2 3 5 3 2 2 3 3 3 2 2 2 1 3 3 3 3 3 3 2 3 3 3 1 0 1 2 3 4 3 2 1 2 2 2 1 2 2 2 1 0 1 1 2 3 1 1 0 0 2 2 2 1 1 2 3 4 4 5 5 5 5 6 5 5 5
6 8 9 9 9 9 9 9 8 8 6 7 8 7 3 4 5 4 5 3 1 1 3 2 3 5 4 3 4 4 3 2 1 3 4 3 4 4 2 1 2 1 1 2 1 2 2 4 3 4 2 1 2 0 1 1 4 1 1 2 0 0 1 2 2 2 1 0 1 1 1 2 1 1 2 3 5 5 5 5 5 5 5 5 6
5 5 7 10 8 9 8 8 7 7 7 6 6 5 6 6 5 6 3 4 4 2 4 3 3 5 5 3 4 5 4 3 3 3 3 3 4 5 3 2 2 1 2 1 0 1 2 3 2 2 5 1 1 1 2 3 4 5 1 2 2 2 0 2 1 1 1 0 1 3 2 3 3 1 1 0 3 4 4 5 4 4 4 4 4
7 8 8 8 7 10 10 10 9 8 7 7 7 7 8 7 6 5 5 7 4 4 5 5 3 3 4 5 3 3 4 4 4 3 3 3 4 5 4 3 3 2 3 3 2 3 2 1 1 2 3 5 2 1 2 3 3 1 5 3 2 0 2 1 1 1 1 2 2 2 2 3 1 1 2 3 5 8 8 6 3 2 2 2 3
7 6 7 8 9 9 9 8 7 6 8 7 8 8 7 8 7 7 6 5 5 4 5 5 3 4 4 1 3 2 4 5 4 4 4 4 4 4 3 4 4 4 3 2 1 1 1 1 1 2 1 0 3 3 2 2 0 2 4 3 2 2 1 1 1 1 1 0 1 2 1 2 1 0 1 2 1 4 4 5 6 1 3 1 5
7 6 6 7 9 11 10 10 8 6 7 7 7 8 7 6 6 7 7 7 6 1 1 1 4 2 3 4 3 4 4 6 4 4 5 5 5 5 5 5 4 4 3 4 3 2 2 2 1 1 0 2 3 2 3 1 1 1 3 3 3 1 2 1 1 1 1 1 2 3 2 1 1 2 1 2 1 3 3 3 4 1 3 3 3
8 7 7 7 10 11 10 9 6 7 6 7 6 7 8 5 5 5 5 6 5 5 4 2 1 3 5 3 4 4 4 4 5 4 4 5 6 6 6 5 5 4 4 4 3 3 3 3 2 2 1 1 3 5 3 2 2 0 2 1 2 2 1 1 1 1 3 3 2 3 0 1 0 3 4 4 1 2 4 5 3 1 2 3 4
8 9 8 8 8 8 8 7 7 7 7 7 7 5 7 7 7 6 4 1 3 4 3 2 3 2 5 3 4 3 4 4 3 4 4 4 5 6 6 5 6 4 4 5 3 3 3 4 3 3 3 3 3 2 3 2 1 1 2 1 2 2 3 3 1 2 2 3 2 2 2 3 3 4 7 5 3 2 1 2 2 2 1 2 4
7 6 7 7 7 6 7 7 6 6 7 6 6 5 6 7 7 6 7 4 2 3 3 3 3 3 4 3 3 4 3 4 4 4 4 4 4 4 5 6 5 4 4 4 4 4 3 4 3 4 4 5 3 3 3 1 2 2 2 4 2 1 3 3 4 3 4 3 4 1 1 2 7 5 5 7 7 7 6 5 5 5 5 2 3
6 7 8 8 7 7 6 5 5 7 5 5 6 8 7 8 8 8 9 8 5 4 5 3 3 3 4 2 3 2 2 3 3 3 3 4 4 4 5 4 4 4 5 5 4 4 4 4 3 4 4 5 4 5 4 3 3 4 3 4 3 3 3 2 1 3 2 2 3 2 1 2 1 3 4 4 6 7 7 6 7 7 6 6 4
Wind_Direction
120 127 133 137 137 137 139 138 135 133 131 130 127 123 120 116 113 112 111 111 111 111 112 112 114 115 115 115 115 116 116 116 116 116 116 115 114 112 110 107 105 104 109 109 107 106 106 106 107 109 109 109 108 108 106 104 105 104 104 105 101 95 97 96 92 92 91 88 85 88 90 88 87 87 84 82 85 83 81 79 75 73 61 72 71
128 123 131 135 135 136 139 138 135 133 131 127 124 121 118 116 113 111 111 111 112 113 113 112 113 114 116 116 118 119 120 120 120 119 117 117 116 115 113 112 112 111 110 112 113 112 111 110 109 108 107 107 107 108 108 107 106 107 106 103 101 99 91 92 97 91 89 88 86 85 84 85 90 92 90 90 90 89 84 82 81 76 71 70 66
108 112 129 134 132 134 135 136 134 128 125 121 121 120 118 115 113 110 108 108 110 111 112 112 114 117 118 119 120 122 122 121 120 120 118 118 117 117 118 117 116 115 114 115 115 112 112 112 111 109 109 107 107 110 111 109 108 108 104 104 101 97 98 101 97 95 96 96 95 94 93 92 89 90 91 86 83 82 82 82 82 79 79 72 66
122 111 104 127 125 128 132 132 127 122 120 121 123 121 118 114 112 111 110 108 109 110 112 112 114 117 120 122 121 122 122 122 120 119 118 117 118 121 122 118 117 115 115 114 113 113 113 110 109 112 112 112 112 110 111 110 108 111 108 105 103 103 101 96 96 93 90 87 81 72 66 65 84 91 93 90 89 88 86 86 84 82 81 81 74
112 101 83 95 115 124 128 129 127 124 126 128 129 126 122 119 117 115 114 111 112 112 114 114 114 115 118 120 121 119 120 119 118 118 118 115 115 118 121 120 118 118 116 115 115 115 114 114 114 113 114 115 114 113 113 110 109 109 108 107 108 108 105 101 96 93 91 88 85 82 90 103 108 98 95 93 90 85 85 86 85 84 79 79 81
112 107 97 101 117 135 131 130 132 135 133 134 132 128 124 123 121 118 116 115 113 113 114 116 116 117 118 119 119 117 116 115 117 117 115 114 117 121 125 123 120 121 120 120 120 114 116 123 121 114 111 113 114 115 113 109 109 113 111 114 115 112 108 102 100 100 99 91 80 70 54 52 80 96 96 99 96 89 86 83 83 79 75 75 77
109 122 125 127 127 138 136 137 136 133 134 132 130 127 126 126 123 119 117 117 117 117 117 117 120 120 121 121 119 118 117 117 115 116 118 120 122 125 127 124 123 121 125 120 110 110 112 116 115 112 109 110 113 114 113 110 111 112 113 116 117 117 110 97 98 105 96 64 44 56 68 80 92 108 108 96 101 99 93 92 89 85 86 77 74
98 100 117 126 129 141 137 135 134 131 134 132 130 128 129 127 122 119 118 119 119 120 119 120 122 123 123 121 121 119 120 119 120 119 121 121 123 128 130 126 123 124 118 114 118 116 114 113 110 109 110 115 117 116 115 112 105 110 116 119 120 123 131 58 79 109 103 73 62 70 69 59 60 108 105 103 101 97 97 88 86 88 82 80 76
124 129 134 125 129 142 138 134 135 137 134 133 132 133 132 128 123 121 121 120 121 123 125 125 125 125 125 123 121 120 121 123 124 122 122 122 126 125 116 104 107 104 99 121 119 117 115 113 110 111 115 114 113 116 109 106 108 105 107 112 106 100 90 60 112 100 93 85 79 68 53 31 32 67 95 94 98 93 90 85 80 84 86 80 74
123 113 128 126 134 138 137 135 138 140 135 138 135 136 134 130 125 122 122 121 121 123 127 129 130 130 129 127 125 124 124 128 128 128 125 126 127 126 118 114 116 110 108 118 121 120 117 113 115 115 118 119 118 114 111 112 109 106 103 100 98 98 91 323 158 119 105 114 101 81 282 104 82 101 110 100 103 107 105 107 119 108 97 89 83
110 106 101 101 121 131 136 138 141 139 138 140 140 140 138 133 129 126 124 123 122 124 126 128 130 131 130 129 126 125 125 127 128 128 128 130 129 128 125 114 112 115 117 119 123 123 120 119 119 117 114 115 117 117 117 110 107 101 101 101 96 105 122 229 168 116 125 131 127 231 141 94 80 100 116 114 111 107 105 99 93 91 87 88 86
109 101 99 106 125 125 133 138 141 140 141 143 143 144 141 137 132 130 127 125 124 126 127 126 128 128 127 127 126 125 125 125 124 125 124 121 121 121 119 115 115 120 122 123 122 119 118 121 124 128 122 118 120 116 111 100 94 92 89 83 82 68 235 224 142 145 149 140 157 198 78 79 129 126 118 117 111 109 109 105 102 100 98 91 86
117 114 110 99 105 128 133 138 139 141 144 145 146 147 144 139 133 130 128 127 128 129 128 123 120 122 124 126 126 125 125 125 125 126 124 125 125 124 122 122 119 121 124 123 123 123 123 124 129 136 129 114 109 104 102 91 86 82 77 69 52 23 15 149 138 147 142 139 139 110 105 97 146 125 123 117 117 117 115 111 109 104 94 92 87
114 115 123 123 122 133 144 144 141 143 144 144 147 149 147 141 137 133 131 131 131 129 126 123 122 124 125 125 126 128 128 127 127 129 130 129 129 125 125 124 124 126 125 126 125 124 126 127 129 136 120 108 101 98 95 93 88 83 79 71 56 41 61 127 125 127 120 116 107 110 113 140 128 123 124 123 122 122 115 114 114 107 98 94 97
123 124 127 116 120 144 151 145 143 143 143 144 147 149 145 141 139 138 137 137 135 133 128 123 124 127 126 128 130 131 131 131 130 131 131 129 128 128 130 129 129 129 129 127 126 127 126 127 126 121 105 103 98 92 92 89 90 86 83 78 66 59 86 102 107 111 114 117 124 125 164 151 134 133 127 120 119 119 115 114 116 114 106 97 93
126 133 135 137 137 158 150 152 149 141 138 142 146 144 143 141 140 141 141 141 140 136 129 127 130 130 133 133 132 133 133 131 128 128 128 127 130 132 132 134 134 132 130 131 129 128 127 123 120 108 97 91 93 96 93 98 92 90 89 85 81 80 109 112 113 118 120 120 123 128 174 162 146 148 131 124 121 122 121 118 117 111 109 104 95
115 123 117 121 126 140 150 148 149 140 138 140 142 142 142 142 143 144 146 146 143 135 133 132 135 137 137 136 134 131 127 125 123 126 129 132 133 135 137 136 137 134 136 133 130 128 127 127 121 105 85 70 70 79 87 99 105 109 102 93 85 99 127 131 127 128 128 136 140 148 203 191 156 141 130 126 127 127 124 120 114 114 107 104 101
124 129 124 123 124 131 139 143 144 135 138 143 141 143 144 145 146 148 148 143 137 134 134 135 137 138 139 137 135 132 128 128 126 125 127 121 124 129 135 139 139 139 139 135 132 129 130 127 126 111 96 77 70 69 70 78 88 100 93 81 73 108 138 127 127 132 137 149 142 174 202 187 152 144 138 131 124 124 126 126 122 123 120 107 100
138 135 122 126 127 130 137 141 132 132 136 136 143 149 148 149 149 150 146 140 136 136 136 135 139 140 139 138 137 135 137 135 132 128 113 112 124 125 132 138 142 144 142 140 136 135 134 132 130 115 101 91 73 66 55 61 64 70 69 69 60 114 133 127 134 141 141 138 154 156 210 174 151 147 140 135 136 132 127 126 127 122 118 106 110
104 124 132 134 135 136 140 140 138 139 141 143 146 151 152 149 150 148 142 139 138 138 135 137 139 140 139 134 136 137 139 141 141 131 126 117 112 117 130 142 148 149 148 145 146 145 144 144 134 116 94 87 77 67 56 51 49 53 59 62 56 97 115 127 140 139 137 143 139 173 219 172 159 153 146 144 139 136 128 123 127 126 121 115 113
117 109 106 116 133 144 147 143 147 143 142 142 144 143 150 151 151 147 140 137 134 137 139 136 138 139 133 120 89 75 75 87 103 113 127 101 127 137 149 152 156 155 155 156 154 157 154 147 132 119 73 67 68 60 54 52 51 46 57 59 55 93 126 128 129 132 136 152 151 186 220 165 164 159 152 148 146 133 128 130 129 128 124 125 124
136 135 130 138 146 152 154 151 144 147 144 141 141 144 148 151 146 141 136 137 136 135 127 127 125 111 129 109 90 95 88 96 108 124 108 132 138 151 158 163 164 165 165 163 163 163 159 150 134 117 79 54 51 61 42 36 48 54 61 64 32 74 136 135 132 139 146 155 153 213 198 172 173 164 157 152 146 138 140 147 140 129 131 127 123
146 147 143 157 159 156 160 158 154 149 144 141 143 149 141 141 139 122 130 138 144 121 104 104 79 92 81 87 90 93 108 105 110 131 123 129 155 161 172 172 173 176 176 168 167 167 163 149 151 146 96 27 46 61 51 36 30 60 56 60 48 350 148 133 136 148 154 164 162 208 183 185 180 169 162 159 151 145 153 153 147 142 142 139 132
156 154 151 159 160 161 164 162 156 149 146 140 131 130 145 138 127 118 114 111 96 103 94 104 96 95 97 96 94 105 104 151 164 162 148 116 125 171 182 178 184 183 180 173 172 171 172 170 176 175 132 13 23 39 35 7 21 71 45 60 27 359 157 158 154 155 155 173 174 209 184 193 185 175 168 164 159 155 161 154 155 149 148 146 142
157 138 149 164 165 162 154 155 148 138 135 144 145 151 145 143 138 128 117 99 104 96 99 98 109 109 107 99 97 94 69 33 20 73 95 119 85 199 187 168 177 180 166 137 145 197 164 158 172 145 83 339 333 331 8 347 13 66 30 72 313 20 169 156 151 151 164 178 184 200 186 194 186 180 173 170 166 164 166 158 160 157 148 151 152
140 148 165 162 165 164 159 152 144 140 149 150 155 161 160 168 162 140 117 104 114 105 100 104 105 109 110 111 97 89 80 13 42 89 93 120 140 142 191 193 178 156 139 161 177 185 174 179 161 148 310 349 325 329 327 339 332 45 70 86 302 34 149 163 153 159 175 179 190 195 190 193 187 180 179 177 172 177 172 168 168 164 153 159 153
157 160 162 162 161 160 156 147 146 144 150 155 157 167 171 179 161 141 130 130 123 118 113 108 107 117 121 126 126 140 145 195 125 112 128 157 164 156 192 202 178 158 171 168 192 201 196 171 136 155 60 313 295 297 299 287 267 305 109 129 231 157 159 172 167 168 179 181 191 196 192 191 185 184 184 181 179 182 180 174 174 167 165 166 164
152 157 160 159 162 162 157 157 152 155 156 162 165 168 170 175 166 159 127 146 133 127 120 120 120 118 136 139 145 158 175 185 177 145 173 183 184 186 197 193 166 184 184 185 177 227 224 79 150 128 170 272 290 294 301 299 302 274 120 157 199 176 177 174 175 179 178 180 192 196 192 192 185 191 186 183 184 185 186 179 178 179 177 178 177
155 157 155 158 164 159 161 159 158 159 158 159 159 161 163 159 151 131 138 151 129 139 135 132 132 142 143 147 156 163 188 194 174 159 165 191 193 194 200 153 112 156 142 151 135 182 346 337 294 290 298 292 286 295 310 303 297 281 233 155 187 185 187 167 175 180 185 191 197 200 193 191 190 194 187 188 189 186 195 184 182 190 181 185 196
155 153 158 163 161 157 160 161 163 161 158 156 152 150 166 166 165 148 158 151 146 145 146 151 148 148 159 169 166 170 182 188 165 152 172 199 198 203 128 72 134 134 137 148 166 169 208 222 251 268 284 280 295 290 283 293 295 289 279 175 177 196 184 174 174 184 190 196 199 204 197 195 194 195 193 196 194 187 195 192 190 194 184 194 187
152 160 169 167 160 159 163 164 162 158 153 153 152 158 163 176 171 154 166 137 142 145 147 149 151 157 166 173 171 175 171 175 142 158 226 218 185 55 63 91 82 106 133 128 67 194 198 213 211 231 257 258 247 271 274 276 290 292 283 179 187 176 182 180 175 175 193 199 190 191 206 202 198 197 194 202 208 191 195 197 197 198 192 201 194
151 173 182 151 152 170 163 163 158 151 147 147 161 160 170 175 169 150 145 117 132 130 145 144 156 152 162 166 165 167 162 172 151 177 207 200 72 80 70 85 69 52 93 118 88 47 95 61 43 79 220 239 273 284 298 283 285 289 302 145 147 180 172 171 171 174 210 218 186 188 202 202 203 199 199 203 218 193 201 196 199 204 201 204 206
205 190 171 172 168 167 160 154 145 141 142 154 161 163 159 158 151 151 117 121 117 128 143 160 127 143 163 159 149 163 166 170 175 184 207 115 92 94 92 86 94 77 86 102 88 41 32 15 349 50 349 284 298 316 330 285 287 303 46 115 159 169 163 166 172 171 190 188 201 202 203 194 205 211 212 212 221 212 201 199 201 202 206 207 212
186 189 144 202 191 173 147 132 134 138 145 148 147 154 154 137 117 99 115 99 106 114 128 102 125 126 135 149 136 157 149 149 156 182 157 119 123 127 129 114 135 137 117 111 101 131 133 107 266 14 281 252 271 311 12 30 14 53 74 98 105 146 162 169 179 181 177 185 184 183 197 203 195 213 231 231 224 224 202 202 202 204 204 208 212
153 142 172 183 214 174 146 131 136 134 140 154 159 151 136 138 122 107 93 108 109 111 111 114 108 121 126 138 139 114 269 167 163 158 131 135 134 117 114 192 166 138 113 130 138 153 183 207 194 185 317 326 101 43 96 78 53 56 44 40 74 88 124 176 179 173 181 180 172 190 185 188 190 202 230 248 249 224 215 201 207 207 203 207 209
175 182 181 161 201 169 136 131 135 140 152 160 150 139 139 119 114 122 103 108 115 118 131 139 128 144 152 129 130 158 208 222 184 114 105 90 124 117 157 186 213 110 120 139 137 175 223 227 350 141 95 45 96 55 52 81 73 74 45 57 52 61 76 56 159 199 183 162 179 179 185 188 190 191 204 229 263 278 241 213 211 205 203 209 207
141 151 198 175 187 153 134 136 148 152 155 146 124 121 117 117 114 108 115 118 122 125 133 119 126 149 128 148 130 155 196 190 191 105 116 101 76 111 169 188 265 125 105 152 172 188 179 190 35 23 60 141 95 107 70 75 82 69 67 62 45 59 55 45 29 17 155 183 180 179 181 192 196 201 199 198 214 232 278 255 225 223 216 219 212
173 168 187 179 176 149 141 142 144 146 151 146 141 128 112 101 91 101 105 104 111 119 116 115 137 132 136 234 128 148 166 191 88 89 115 141 128 112 146 139 17 44 78 211 211 207 107 91 59 31 26 31 134 114 112 108 98 90 80 77 49 58 46 44 25 27 102 147 190 195 195 191 194 201 198 197 201 195 211 255 258 243 233 222 212
187 163 175 172 160 132 131 136 135 140 136 127 114 102 97 82 80 87 89 85 75 78 108 104 143 128 151 169 164 162 158 149 110 103 107 116 119 122 153 155 146 176 197 240 242 250 97 98 133 84 38 46 123 130 145 135 110 94 91 73 65 58 44 33 44 52 62 113 170 209 191 209 215 208 201 195 185 190 203 218 227 242 238 228 223
221 167 152 147 147 126 126 120 131 135 125 113 111 104 96 105 108 103 91 78 75 98 71 153 159 150 156 157 159 155 148 136 116 114 121 125 135 160 180 147 159 181 192 205 148 157 157 121 102 111 102 43 48 40 121 113 78 68 56 48 46 79 60 42 28 27 17 52 89 146 188 203 216 228 210 190 185 199 204 208 214 223 227 231 225
166 157 146 150 153 145 137 139 145 147 140 130 128 130 117 95 68 89 116 100 118 106 86 62 87 83 81 73 57 47 99 113 133 135 145 152 136 150 177 200 204 206 199 211 149 157 139 128 137 149 162 138 86 341 357 81 98 34 15 34 40 15 101 86 89 30 15 348 360 34 54 159 206 212 212 190 189 199 207 206 212 215 221 221 224
184 164 155 155 152 145 141 143 144 145 145 145 143 136 150 159 147 160 136 117 117 117 102 67 76 61 68 85 71 59 65 98 133 141 131 120 126 121 150 202 207 207 207 126 148 130 125 132 135 89 354 131 131 178 292 101 51 168 174 354 343 15 95 111 135 198 206 311 319 337 13 33 114 189 195 198 199 198 209 210 212 215 218 214 218
181 169 157 146 142 135 137 143 146 142 143 142 138 144 130 133 132 146 144 107 10 54 104 88 86 83 56 69 90 84 79 53 107 145 122 125 132 132 144 159 193 196 152 113 131 124 141 151 162 156 133 74 130 53 1 53 123 310 169 94 296 145 316 35 15 26 6 271 304 355 1 50 17 106 152 187 209 214 214 208 213 221 222 222 224
188 169 159 151 144 138 141 141 145 146 144 142 126 109 108 94 87 115 98 107 138 105 78 60 81 83 74 80 59 83 87 78 67 102 119 126 119 117 140 129 127 66 110 135 155 147 154 167 151 169 119 347 342 5 19 47 118 167 84 213 185 138 260 244 152 294 324 21 100 56 30 51 320 335 9 254 259 242 227 198 212 221 228 235 241
187 174 165 159 153 150 151 152 154 157 145 130 121 119 106 91 92 82 93 84 60 65 72 42 36 89 85 61 60 87 96 86 78 89 109 101 113 129 127 123 109 102 118 126 185 210 210 224 144 173 162 163 142 138 51 66 96 200 151 113 22 35 222 219 90 273 354 94 27 89 111 178 229 15 21 328 14 352 336 320 286 234 257 308 295
183 181 172 164 154 154 152 153 149 151 134 129 132 130 131 131 125 117 112 103 115 111 123 138 118 101 110 114 66 72 96 83 78 89 99 107 100 105 107 106 92 80 93 99 109 81 66 90 261 165 144 212 144 134 117 48 211 71 83 131 160 173 179 218 105 151 322 55 123 97 170 261 310 37 341 351 86 219 228 248 257 357 41 232 244
187 176 177 171 165 159 162 158 157 148 127 129 134 126 125 138 144 144 145 151 146 211 188 181 133 129 95 82 68 49 66 93 74 84 100 102 103 100 104 102 99 94 101 102 96 117 129 148 160 62 201 132 117 100 128 200 319 51 65 65 69 43 167 120 148 113 98 310 28 81 74 303 259 198 220 242 196 271 303 323 335 49 231 268 17
175 175 177 177 172 165 161 158 153 138 128 131 136 139 138 135 127 129 140 147 159 160 156 155 102 119 79 59 65 46 45 65 93 89 103 109 109 104 103 100 93 95 94 94 110 113 93 76 95 101 78 113 121 129 137 187 181 298 66 56 48 30 44 104 142 153 160 127 342 338 321 309 29 3 350 313 253 210 229 219 238 171 287 10 326
176 179 179 180 176 165 157 149 141 125 124 133 135 143 137 144 142 138 127 141 141 138 128 93 90 69 80 45 61 48 50 45 58 90 84 96 101 114 111 105 101 97 101 99 88 87 102 111 99 79 84 59 74 115 121 208 167 170 113 89 74 70 57 62 57 74 110 97 359 35 321 326 38 36 9 344 314 262 275 353 347 333 258 156 218
177 176 178 176 174 157 154 151 133 114 123 125 129 131 138 142 141 146 138 136 114 83 79 91 76 65 82 62 64 66 61 57 48 61 85 83 98 102 100 101 102 98 88 92 88 78 76 86 98 112 103 84 57 84 115 140 110 124 113 147 112 67 37 28 27 40 53 76 164 167 343 46 61 15 9 22 34 41 41 38 29 20 13 19 168
177 181 181 179 172 159 144 116 80 77 82 106 138 152 161 160 156 155 147 147 154 141 121 88 88 81 102 79 82 77 59 92 80 60 81 99 91 90 95 94 87 84 83 77 75 81 61 66 62 74 75 94 99 93 82 59 74 76 74 102 121 141 140 106 41 43 91 100 69 27 334 354 81 68 19 10 41 50 55 49 39 32 27 26 16